| time (UTC) | temp F | wind direction | speed knots | gust knots | rain 1hr in | rain 24hr in | rain mn in | humidity % | barometer mb |
| 20260507183003 | 45 | 120 | 7.8 | 19.1 | 0.00 | 0.00 | 0.00 | 56 | 1019.2 |
| 20260507181555 | 44 | 162 | 6.1 | 16.5 | 0.00 | 0.00 | 0.00 | 56 | 1019.2 |
| 20260507180048 | 44 | 193 | 9.6 | 18.2 | 0.00 | 0.00 | 0.00 | 56 | 1019.5 |
| 20260507174502 | 45 | 153 | 6.1 | 17.4 | 0.00 | 0.00 | 0.00 | 57 | 1019.3 |
| 20260507173128 | 45 | 160 | 5.2 | 13.9 | 0.00 | 0.00 | 0.00 | 57 | 1019.4 |
| 20260507171551 | 43 | 179 | 7.8 | 18.2 | 0.00 | 0.00 | 0.00 | 58 | 1019.3 |
| 20260507170002 | 44 | 175 | 7.0 | 13.9 | 0.00 | 0.00 | 0.00 | 58 | 1019.3 |
| 20260507164607 | 43 | 177 | 6.1 | 17.4 | 0.00 | 0.00 | 0.00 | 60 | 1019.4 |
| 20260507163049 | 42 | 224 | 4.3 | 14.8 | 0.00 | 0.00 | 0.00 | 62 | 1019.2 |
| 20260507161559 | 42 | 125 | 3.5 | 14.8 | 0.00 | 0.00 | 0.00 | 62 | 1019.2 |
| 20260507160115 | 41 | 237 | 2.6 | 8.7 | 0.00 | 0.00 | 0.00 | 63 | 1019.3 |
| 20260507154555 | 41 | 99 | 3.5 | 10.4 | 0.00 | 0.00 | 0.00 | 63 | 1019.3 |
| 20260507153045 | 41 | 216 | 2.6 | 9.6 | 0.00 | 0.00 | 0.00 | 64 | 1019.3 |
| 20260507151600 | 41 | 243 | 2.6 | 8.7 | 0.00 | 0.00 | 0.00 | 65 | 1019.3 |
| 20260507150057 | 40 | 259 | 2.6 | 9.6 | 0.00 | 0.00 | 0.00 | 66 | 1019.2 |
| 20260507144558 | 40 | 233 | 3.5 | 9.6 | 0.00 | 0.00 | 0.00 | 67 | 1019.3 |
| 20260507143111 | 39 | 240 | 2.6 | 6.1 | 0.00 | 0.00 | 0.00 | 69 | 1019.1 |
| 20260507141613 | 38 | 226 | 1.7 | 5.2 | 0.00 | 0.00 | 0.00 | 71 | 1019.2 |
| 20260507140056 | 38 | 181 | 2.6 | 7.8 | 0.00 | 0.00 | 0.00 | 71 | 1019.4 |
| 20260507134550 | 38 | 212 | 1.7 | 6.1 | 0.00 | 0.00 | 0.00 | 71 | 1019.3 |
| 20260507133106 | 38 | 165 | 3.5 | 7.8 | 0.00 | 0.00 | 0.00 | 71 | 1019.3 |
| 20260507131551 | 38 | 165 | 2.6 | 11.3 | 0.00 | 0.00 | 0.00 | 71 | 1019.1 |
| 20260507130044 | 38 | 258 | 2.6 | 7.0 | 0.00 | 0.00 | 0.00 | 71 | 1019.1 |
| 20260507124548 | 38 | 109 | 1.7 | 7.0 | 0.00 | 0.00 | 0.00 | 72 | 1019.3 |
| 20260507123057 | 38 | 207 | 1.7 | 10.4 | 0.00 | 0.00 | 0.00 | 72 | 1019.3 |
| 20260507121557 | 38 | 225 | 0.9 | 7.0 | 0.00 | 0.00 | 0.00 | 73 | 1019.3 |
| 20260507120047 | 38 | 123 | 1.7 | 6.1 | 0.00 | 0.00 | 0.00 | 73 | 1019.4 |
| 20260507114502 | 38 | 186 | 0.9 | 8.7 | 0.00 | 0.00 | 0.00 | 72 | 1019.3 |
| 20260507113054 | 38 | 146 | 4.3 | 9.6 | 0.00 | 0.00 | 0.00 | 71 | 1019.2 |
| 20260507111557 | 39 | 195 | 3.5 | 11.3 | 0.00 | 0.00 | 0.00 | 71 | 1019.3 |
| 20260507104555 | 39 | 243 | 4.3 | 11.3 | 0.00 | 0.00 | 0.00 | 71 | 1019.3 |
| 20260507103046 | 39 | 193 | 5.2 | 12.2 | 0.00 | 0.00 | 0.00 | 72 | 1019.2 |
| 20260507101502 | 39 | 212 | 3.5 | 9.6 | 0.00 | 0.00 | 0.00 | 72 | 1019.0 |
| 20260507100051 | 39 | 144 | 5.2 | 11.3 | 0.00 | 0.00 | 0.00 | 71 | 1019.0 |
| 20260507094548 | 39 | 186 | 4.3 | 11.3 | 0.00 | 0.00 | 0.00 | 71 | 1018.9 |
| 20260507093045 | 39 | 229 | 5.2 | 11.3 | 0.00 | 0.00 | 0.00 | 70 | 1018.8 |
| 20260507091556 | 39 | 197 | 4.3 | 10.4 | 0.00 | 0.00 | 0.00 | 70 | 1018.6 |
| 20260507090052 | 39 | 193 | 4.3 | 11.3 | 0.00 | 0.00 | 0.00 | 71 | 1018.6 |
| 20260507084511 | 40 | 160 | 7.8 | 15.6 | 0.00 | 0.00 | 0.00 | 71 | 1018.4 |
| 20260507083056 | 40 | 134 | 5.2 | 12.2 | 0.00 | 0.00 | 0.00 | 71 | 1018.4 |
| 20260507081554 | 40 | 201 | 3.5 | 16.5 | 0.00 | 0.00 | 0.00 | 71 | 1018.3 |
| 20260507080003 | 40 | 178 | 2.6 | 12.2 | 0.00 | 0.00 | 0.00 | 71 | 1018.2 |
| 20260507074558 | 40 | 164 | 4.3 | 14.8 | 0.00 | 0.00 | 0.00 | 70 | 1018.1 |
| 20260507073049 | 40 | 177 | 5.2 | 12.2 | 0.00 | 0.00 | 0.00 | 71 | 1018.0 |
| 20260507071545 | 39 | 130 | 5.2 | 12.2 | 0.00 | 0.00 | 0.00 | 71 | 1018.0 |
| 20260507070057 | 39 | 195 | 4.3 | 13.0 | 0.00 | 0.00 | 0.00 | 72 | 1017.9 |
| 20260507064610 | 39 | 193 | 4.3 | 8.7 | 0.00 | 0.00 | 0.00 | 72 | 1017.8 |
| 20260507063051 | 39 | 209 | 4.3 | 12.2 | 0.00 | 0.00 | 0.00 | 71 | 1017.6 |
| 20260507061503 | 40 | 219 | 3.5 | 8.7 | 0.00 | 0.00 | 0.00 | 70 | 1017.6 |
| 20260507060058 | 40 | 182 | 3.5 | 11.3 | 0.00 | 0.00 | 0.00 | 70 | 1017.5 |
| 20260507054600 | 40 | 152 | 5.2 | 15.6 | 0.00 | 0.00 | 0.00 | 70 | 1017.4 |
| 20260507053100 | 41 | 199 | 5.2 | 12.2 | 0.00 | 0.00 | 0.00 | 69 | 1017.3 |
| 20260507051556 | 41 | 161 | 7.0 | 14.8 | 0.00 | 0.00 | 0.00 | 68 | 1017.0 |
| 20260507050046 | 42 | 152 | 7.0 | 13.9 | 0.00 | 0.00 | 0.00 | 66 | 1017.0 |
| 20260507044502 | 42 | 239 | 4.3 | 11.3 | 0.00 | 0.00 | 0.00 | 67 | 1016.7 |
| 20260507043100 | 42 | 173 | 4.3 | 12.2 | 0.00 | 0.00 | 0.00 | 66 | 1016.6 |
| 20260507041600 | 43 | 232 | 8.7 | 18.2 | 0.00 | 0.00 | 0.00 | 65 | 1016.6 |
| 20260507040045 | 43 | 151 | 5.2 | 14.8 | 0.00 | 0.00 | 0.00 | 64 | 1016.6 |
| 20260507034612 | 44 | 132 | 4.3 | 15.6 | 0.00 | 0.00 | 0.00 | 63 | 1016.5 |
| 20260507033055 | 44 | 195 | 6.1 | 12.2 | 0.00 | 0.00 | 0.00 | 63 | 1016.5 |
| 20260507031549 | 44 | 191 | 7.0 | 13.9 | 0.00 | 0.00 | 0.00 | 62 | 1016.2 |
| 20260507030158 | 45 | 155 | 7.0 | 16.5 | 0.00 | 0.00 | 0.00 | 61 | 1016.0 |
| 20260507024601 | 45 | 219 | 6.1 | 15.6 | 0.00 | 0.00 | 0.00 | 62 | 1015.9 |
| 20260507023103 | 46 | 231 | 5.2 | 13.9 | 0.00 | 0.00 | 0.00 | 61 | 1015.7 |
| 20260507021601 | 46 | 169 | 7.0 | 15.6 | 0.00 | 0.00 | 0.00 | 60 | 1015.5 |
| 20260507020059 | 47 | 220 | 7.8 | 15.6 | 0.00 | 0.00 | 0.00 | 59 | 1015.5 |
| 20260507014605 | 48 | 209 | 7.0 | 19.1 | 0.00 | 0.00 | 0.00 | 59 | 1015.3 |
| 20260507013006 | 47 | 178 | 3.5 | 12.2 | 0.00 | 0.00 | 0.00 | 62 | 1015.1 |
| 20260507011559 | 47 | 182 | 8.7 | 15.6 | 0.00 | 0.00 | 0.00 | 60 | 1015.2 |
| 20260507010051 | 47 | 155 | 7.0 | 17.4 | 0.00 | 0.00 | 0.00 | 63 | 1015.1 |
| 20260507004542 | 47 | 210 | 4.3 | 11.3 | 0.00 | 0.00 | 0.00 | 62 | 1015.0 |
| 20260507003101 | 47 | 136 | 7.8 | 15.6 | 0.00 | 0.00 | 0.00 | 61 | 1015.1 |
| 20260507001609 | 47 | 196 | 7.8 | 13.9 | 0.00 | 0.00 | 0.00 | 59 | 1015.1 |
| 20260507000048 | 46 | 207 | 5.2 | 13.0 | 0.00 | 0.00 | 0.00 | 60 | 1015.2 |
| 20260506234502 | 46 | 167 | 4.3 | 14.8 | 0.00 | 0.00 | 0.00 | 63 | 1015.2 |
| 20260506233102 | 49 | 218 | 5.2 | 14.8 | 0.00 | 0.00 | 0.00 | 59 | 1015.0 |
| 20260506231552 | 47 | 160 | 7.8 | 17.4 | 0.00 | 0.00 | 0.00 | 59 | 1014.8 |
| 20260506230042 | 46 | 188 | 5.2 | 11.3 | 0.00 | 0.00 | 0.00 | 62 | 1014.9 |
| 20260506224601 | 48 | 147 | 6.1 | 12.2 | 0.00 | 0.00 | 0.00 | 57 | 1014.8 |
| 20260506223102 | 47 | 217 | 5.2 | 16.5 | 0.00 | 0.00 | 0.00 | 61 | 1014.8 |
| 20260506221603 | 47 | 229 | 5.2 | 11.3 | 0.00 | 0.00 | 0.00 | 62 | 1014.9 |
| 20260506220047 | 47 | 148 | 6.1 | 14.8 | 0.00 | 0.00 | 0.00 | 61 | 1015.0 |
| 20260506214503 | 47 | 146 | 4.3 | 11.3 | 0.00 | 0.00 | 0.00 | 65 | 1014.9 |
| 20260506213056 | 46 | 181 | 7.8 | 15.6 | 0.00 | 0.00 | 0.00 | 66 | 1015.0 |
| 20260506211550 | 45 | 237 | 6.1 | 13.9 | 0.00 | 0.00 | 0.00 | 67 | 1014.9 |
| 20260506210046 | 45 | 181 | 4.3 | 13.9 | 0.00 | 0.00 | 0.00 | 69 | 1015.1 |
| 20260506204503 | 44 | 153 | 8.7 | 15.6 | 0.00 | 0.00 | 0.00 | 74 | 1015.1 |
| 20260506203055 | 42 | 140 | 4.3 | 11.3 | 0.00 | 0.00 | 0.00 | 79 | 1015.1 |
| 20260506201550 | 41 | 165 | 5.2 | 12.2 | 0.00 | 0.00 | 0.00 | 79 | 1015.2 |
| 20260506200148 | 41 | 262 | 5.2 | 13.0 | 0.00 | 0.00 | 0.00 | 80 | 1015.1 |
| 20260506194609 | 41 | 210 | 4.3 | 13.0 | 0.00 | 0.00 | 0.00 | 80 | 1014.9 |
| 20260506193047 | 41 | 172 | 7.0 | 15.6 | 0.00 | 0.00 | 0.00 | 78 | 1014.8 |
| 20260506191503 | 41 | 221 | 5.2 | 8.7 | 0.00 | 0.00 | 0.00 | 81 | 1014.6 |
| 20260506190056 | 40 | 247 | 7.0 | 12.2 | 0.00 | 0.00 | 0.00 | 82 | 1014.7 |
| 20260506184553 | 40 | 235 | 4.3 | 9.6 | 0.00 | 0.00 | 0.00 | 83 | 1014.7 |